Temperature
27 28 28 28 27 27 28 28 28 28 28 28 26 26 24 22 22 21 20 19 19 18 18 17 17 17 17 17 17 17 17 17 17 17 16 16 16 16 16 16 16 16 16 16
26 27 27 27 28 28 28 28 28 28 27 27 25 24 23 22 21 21 20 19 18 18 17 17 17 17 17 17 17 17 17 17 17 16 16 16 16 16 16 16 16 16 16 16
25 26 26 26 27 27 28 28 28 28 27 25 24 23 22 21 20 20 19 18 18 17 17 17 17 17 17 17 17 17 17 16 16 16 16 16 16 16 16 16 16 16 16 16
25 25 24 26 26 27 27 27 27 26 25 24 23 20 19 19 19 19 18 17 17 17 16 16 16 16 16 16 16 16 16 16 16 16 16 16 15 15 16 16 15 16 15 15
25 24 25 24 25 25 25 25 25 25 24 22 20 19 18 17 17 17 17 16 16 16 16 16 16 16 16 16 16 16 16 16 16 16 16 16 15 15 15 15 15 15 15 15
24 24 24 25 24 24 25 24 24 23 22 21 21 23 19 16 16 16 15 15 15 15 15 15 16 16 16 16 16 16 16 16 16 16 16 15 15 15 15 15 15 15 15 14
24 24 24 23 23 23 24 23 22 22 21 21 22 21 17 15 15 15 15 15 15 15 15 15 15 15 15 15 15 15 15 15 15 16 15 15 15 15 15 15 15 14 14 14
23 23 23 21 22 22 21 19 20 20 20 19 17 16 15 15 14 14 14 14 14 14 14 14 15 15 15 15 15 15 15 15 15 15 15 15 15 15 14 14 14 14 14 13
22 21 19 19 19 18 18 18 18 19 18 17 16 15 14 14 14 14 14 14 14 14 14 14 14 14 14 14 14 14 14 14 14 14 14 14 14 14 14 14 14 13 13 13
19 19 18 17 17 17 17 17 17 17 16 16 15 14 14 14 13 13 13 13 13 13 13 13 13 14 14 14 14 14 14 14 14 14 13 13 13 13 13 13 13 12 12 12
19 18 17 16 16 15 15 16 16 15 15 15 14 14 13 13 13 13 13 13 13 13 13 13 13 13 13 13 13 13 13 13 13 13 13 13 13 12 12 12 12 12 11 11
19 17 18 16 15 14 14 14 14 14 14 14 14 13 13 12 12 12 12 12 12 12 13 12 13 13 13 13 13 13 12 12 12 12 12 12 12 11 11 11 11 11 11 11
16 16 15 14 14 14 14 14 14 13 13 13 13 13 12 12 12 12 12 12 12 12 12 12 12 12 12 12 12 12 12 12 11 11 11 11 11 11 10 10 10 10 10 10
14 14 14 13 13 13 13 13 13 12 12 12 12 12 12 12 11 11 11 11 11 12 11 12 12 12 12 12 12 12 11 11 11 11 11 10 10 10 10 10 9 9 9 9
14 14 13 12 12 12 12 12 12 12 11 11 11 11 11 11 11 11 11 11 11 11 11 11 11 11 11 11 11 11 11 11 11 10 10 10 10 10 9 9 9 8 8 8
13 13 12 12 12 12 12 12 12 11 11 11 11 11 11 11 11 11 11 11 11 11 10 10 10 10 10 11 11 11 10 10 10 10 10 10 10 9 9 9 9 8 8 7
12 12 12 12 12 11 11 11 11 11 11 11 10 11 11 10 10 10 10 10 10 10 10 10 10 10 10 10 10 10 10 10 10 10 9 9 9 9 9 8 8 7 7 7
12 12 12 11 11 11 11 11 10 10 10 10 10 10 10 10 10 10 10 10 10 10 9 10 10 9 9 10 10 10 10 9 9 9 9 9 8 8 8 8 7 7 7 6
11 11 11 11 11 11 10 10 10 10 10 10 10 10 10 10 9 9 9 9 9 9 9 9 9 9 9 9 9 9 9 9 9 8 8 8 8 8 7 7 7 7 6 6
11 11 10 10 10 10 10 9 9 9 9 10 10 9 9 9 9 9 9 9 8 8 8 8 8 8 8 8 9 9 8 8 8 8 8 7 7 7 7 7 6 6 6 6
10 10 10 10 9 9 9 9 9 9 9 9 9 9 9 9 9 9 9 8 8 8 8 8 8 8 8 8 8 8 8 8 8 7 7 7 7 6 6 6 6 5 5 5
10 10 9 9 9 9 9 9 9 9 9 9 9 9 8 8 8 8 8 8 8 8 8 8 7 7 7 8 7 7 7 7 7 7 6 6 6 6 5 5 5 5 4 4
9 9 9 9 9 9 9 9 9 9 9 9 8 8 8 8 8 8 8 7 7 7 7 7 7 7 7 7 7 7 7 6 6 6 6 6 5 5 5 5 4 4 4 4
9 9 9 9 9 9 9 8 8 8 8 8 8 8 8 8 8 8 7 7 7 7 7 7 7 6 6 7 6 6 6 6 6 6 5 5 5 5 4 4 4 4 4 3
9 9 9 9 9 8 8 8 8 8 8 8 7 7 8 8 7 7 7 6 6 6 6 6 6 6 6 6 6 6 5 5 5 5 5 5 5 4 4 4 4 4 4 3
9 9 9 9 9 8 8 8 8 8 8 7 7 7 7 7 7 6 6 6 6 6 6 5 5 6 6 6 5 5 5 5 5 5 5 4 4 4 4 3 3 3 3 3
8 8 8 8 8 8 8 8 8 7 7 7 7 7 7 6 6 6 6 6 6 6 6 6 5 5 5 5 5 5 5 5 4 4 4 4 4 4 4 3 3 3 3 3
Wind_Speed
8 7 12 14 15 16 17 15 12 9 8 7 8 7 8 8 9 8 8 7 6 5 5 4 5 4 5 5 5 5 6 7 7 7 7 8 8 8 8 9 10 10 10 10
9 9 11 12 14 15 15 13 11 8 5 5 7 8 8 8 9 8 8 7 6 5 4 4 4 4 5 5 5 5 5 5 5 6 7 7 7 7 8 8 8 8 8 9
10 10 10 13 13 14 13 11 11 10 6 9 9 8 7 7 7 7 7 6 5 4 3 3 4 4 5 5 5 5 4 4 5 5 6 6 6 6 7 6 6 6 6 6
9 10 13 6 3 7 8 6 5 3 6 8 9 9 7 6 7 7 6 5 5 4 3 3 4 5 5 5 5 5 5 5 5 6 6 6 6 6 5 5 5 4 4 4
9 12 9 6 5 7 7 6 4 7 8 10 13 11 7 6 6 6 6 5 4 4 4 4 4 5 5 6 5 5 5 5 5 6 6 6 6 6 6 5 5 4 3 3
9 12 11 6 6 3 5 7 5 8 10 12 13 8 6 7 7 7 6 5 5 5 5 5 4 5 6 6 5 5 4 4 4 5 6 6 6 6 6 6 6 5 5 4
12 10 5 4 3 6 9 4 6 7 9 10 6 5 10 9 8 8 7 7 6 6 5 5 4 6 6 6 5 4 4 4 5 5 6 6 6 6 7 7 7 7 7 7
10 11 6 4 4 3 3 4 4 6 8 9 11 13 12 11 9 9 8 8 7 7 7 6 5 7 7 6 5 6 7 7 7 7 7 8 8 8 8 8 9 8 8 7
3 1 5 4 4 4 3 3 4 7 9 12 13 13 12 11 10 9 9 8 8 8 8 8 7 7 8 7 7 8 9 9 9 10 9 9 9 9 8 7 7 7 6 6
2 3 4 4 4 4 4 5 6 8 11 12 13 13 13 11 10 9 9 9 8 9 10 9 9 9 9 8 8 10 11 11 10 11 11 10 9 8 8 7 7 7 6 7
3 4 5 4 4 5 6 8 10 11 11 13 14 14 13 11 10 10 9 9 9 10 10 10 10 10 9 9 10 11 12 11 11 11 12 12 12 11 10 10 7 6 7 7
2 3 3 4 4 6 8 10 11 12 13 13 14 14 13 12 11 10 10 10 11 11 11 11 11 11 10 10 10 12 11 10 9 10 10 11 13 14 19 16 19 19 15 11
2 3 5 6 6 7 9 11 12 12 13 14 13 14 14 13 12 12 11 11 11 12 12 11 12 12 10 10 11 12 12 11 10 10 10 10 10 11 12 14 19 19 18 16
5 6 7 7 7 9 11 13 13 13 13 13 13 14 14 14 13 13 12 11 12 12 12 12 13 12 10 11 12 12 12 11 10 9 9 9 9 9 9 10 10 11 12 14
4 6 8 9 9 10 12 13 14 14 14 14 13 14 14 14 14 13 12 12 13 13 13 13 13 12 10 11 12 12 11 9 9 10 9 9 9 9 9 10 10 9 8 9
6 8 10 10 11 11 12 13 14 14 14 14 13 14 14 14 14 13 12 12 13 13 12 12 12 10 10 11 12 11 11 11 9 9 9 9 9 9 9 9 9 8 8 7
8 9 11 11 11 11 12 12 13 14 14 14 14 14 15 15 15 14 13 13 13 13 11 11 11 10 10 10 10 10 10 10 9 9 9 9 9 9 9 8 8 9 9 8
7 8 10 11 11 13 13 13 13 14 13 14 14 14 14 14 14 13 13 13 13 13 12 11 10 10 10 10 9 9 9 9 9 10 9 9 9 9 8 9 9 9 8 7
9 10 11 12 13 13 14 14 14 13 13 13 13 13 13 13 13 12 12 12 12 12 11 11 10 11 11 10 8 8 9 10 10 10 9 9 9 9 8 8 8 7 7 7
11 12 13 14 14 15 15 14 14 13 13 13 14 14 13 12 12 12 12 12 10 9 9 9 10 10 10 9 6 8 9 10 9 9 8 8 8 8 8 8 8 8 7 7
13 14 16 16 15 15 15 15 14 14 14 13 14 14 13 12 12 11 11 11 10 9 10 8 8 8 8 7 6 8 9 9 9 8 8 8 8 8 8 8 7 7 6 6
13 14 16 16 16 15 14 14 14 15 14 14 14 14 13 13 12 11 11 9 8 5 6 8 8 9 6 5 8 8 8 8 8 7 7 7 7 7 7 7 6 6 6 6
12 14 15 16 16 16 15 14 14 14 14 14 13 13 12 11 9 10 10 8 8 8 8 9 9 7 3 6 8 8 8 8 7 7 7 7 7 6 6 6 6 5 5 5
14 15 15 16 16 16 16 15 14 13 13 12 11 11 11 10 9 9 10 10 9 10 10 9 8 5 3 7 7 8 7 7 7 7 6 6 6 6 5 5 5 5 4 4
14 15 16 16 15 13 14 15 15 14 13 11 12 11 9 9 9 10 10 11 10 10 10 9 6 3 5 7 7 7 7 7 6 6 6 5 5 5 5 5 4 4 4 4
13 13 12 11 12 12 11 11 11 11 11 11 10 9 9 9 10 9 9 10 10 9 8 7 7 5 6 7 7 7 7 6 5 5 6 5 5 5 5 4 4 4 3 4
13 12 11 11 11 10 11 11 11 11 10 10 10 9 9 9 9 9 9 8 7 7 7 7 6 6 6 6 6 6 5 5 5 5 5 4 4 4 4 3 3 3 3 3
Wind_Direction
231 204 196 201 202 205 217 229 236 223 211 184 169 164 153 148 145 141 142 143 141 138 132 138 142 142 144 149 154 163 176 182 188 190 190 190 191 194 196 196 198 198 198 202
215 207 208 213 212 210 215 224 231 223 200 141 138 142 143 149 150 146 143 141 137 135 139 150 154 151 145 143 149 157 165 173 177 180 180 182 182 183 185 186 189 190 193 197
210 198 202 212 211 211 212 216 222 221 193 152 146 143 141 145 148 145 141 134 131 129 133 145 153 154 152 148 148 150 153 155 158 164 168 169 167 168 175 177 174 177 182 188
208 197 216 197 178 214 210 215 221 180 148 149 135 121 115 127 137 136 130 123 119 119 119 132 142 150 151 145 144 141 142 143 144 147 151 151 153 154 154 158 161 158 160 161
212 211 213 185 180 192 200 209 195 172 151 137 131 124 108 100 111 114 113 113 111 109 114 114 118 131 139 139 137 135 133 135 140 147 148 149 150 149 146 143 139 134 131 131
214 218 219 182 151 188 206 199 156 161 158 156 166 173 140 123 115 108 103 103 103 102 102 108 111 124 127 125 122 119 120 125 130 138 142 145 143 141 139 137 131 121 102 93
216 220 207 99 147 188 212 174 138 158 161 168 168 104 123 124 115 110 103 97 97 98 96 97 104 115 114 108 103 102 106 106 103 109 115 118 118 122 125 124 117 107 97 87
217 221 200 103 169 196 68 80 128 145 146 135 116 114 121 119 113 108 100 94 92 92 87 83 94 107 105 98 95 96 93 88 89 89 95 101 103 104 108 113 112 107 103 92
223 168 77 78 75 64 82 105 119 130 131 131 128 126 122 117 110 101 95 91 90 90 85 77 79 91 94 88 92 95 91 86 85 84 81 86 94 98 101 102 105 106 105 99
180 133 108 92 85 83 95 108 116 126 130 133 128 125 122 116 109 101 95 93 93 93 86 77 74 77 80 85 91 95 92 88 85 85 83 77 76 79 84 87 97 101 101 98
188 143 127 112 90 90 97 107 113 118 124 128 125 123 120 115 110 103 97 92 90 89 86 83 82 80 81 87 94 96 94 92 91 88 87 79 71 59 67 57 57 78 89 89
187 140 132 119 109 114 113 113 116 118 120 121 120 121 118 113 109 104 99 95 92 89 87 85 84 81 82 89 98 101 99 97 95 97 96 96 93 80 61 64 60 56 54 69
88 106 107 117 114 115 115 114 114 116 117 118 117 117 114 111 106 101 96 92 91 90 88 88 87 82 80 87 93 96 99 98 97 97 98 99 101 102 96 78 69 62 58 62
124 125 125 121 115 115 117 115 113 112 112 113 114 114 112 109 105 99 95 94 94 92 89 87 85 82 84 90 92 94 97 95 98 98 99 101 101 101 100 101 95 82 69 68
136 134 127 124 122 122 123 122 120 117 116 114 114 114 112 108 104 99 98 97 95 91 86 85 84 81 84 91 92 92 92 93 95 97 98 98 98 98 97 95 95 96 94 88
130 130 131 132 132 132 131 130 126 123 120 116 113 110 108 105 103 99 95 93 91 87 85 84 83 84 88 92 95 92 87 81 89 97 98 97 95 95 94 93 90 86 79 74
149 147 141 139 138 134 131 130 127 125 121 117 114 114 111 108 103 98 94 91 87 84 82 83 85 87 89 93 97 99 100 97 97 95 92 91 90 89 89 89 87 85 77 53
153 146 144 141 137 131 129 125 122 120 118 118 118 115 112 108 105 102 100 98 92 83 77 79 84 88 87 88 90 97 100 99 93 91 90 87 89 90 90 89 89 89 91 85
138 137 138 137 134 130 127 123 119 116 118 119 115 111 108 107 106 105 103 99 96 90 81 81 81 88 87 83 89 96 97 97 95 92 93 95 92 88 88 87 86 85 82 78
128 130 131 131 129 126 124 123 122 121 120 119 116 112 108 108 108 106 101 91 83 89 93 90 92 88 90 82 77 96 97 97 97 97 97 94 92 91 89 88 86 84 80 76
126 127 128 128 125 124 126 126 125 124 122 121 120 117 114 112 112 110 107 98 87 89 96 93 88 90 91 93 92 95 97 98 98 96 95 94 93 91 89 87 84 82 79 76
123 125 126 125 124 123 123 123 123 121 120 120 119 118 118 116 111 103 94 97 102 97 102 95 89 79 77 91 93 93 95 96 95 94 93 93 93 93 91 88 85 82 79 76
124 125 124 125 125 123 122 122 121 121 121 121 122 122 119 115 116 114 109 104 105 92 89 85 81 73 60 96 94 95 94 93 93 94 94 94 95 95 94 92 87 83 81 77
125 125 125 125 123 122 122 121 118 117 116 115 116 116 117 115 107 101 102 95 86 92 91 87 77 64 69 95 96 97 96 96 96 97 99 98 97 95 92 89 87 84 78 71
123 123 124 124 122 120 119 119 117 116 114 112 112 112 108 105 109 108 108 107 109 107 103 97 85 67 95 94 97 95 92 88 91 96 97 95 95 93 90 88 83 80 75 70
119 118 117 116 117 122 124 123 121 119 117 116 113 109 106 106 109 112 113 113 110 108 107 107 104 104 93 93 92 93 98 104 102 98 93 93 90 89 87 85 84 77 75 69
112 112 112 112 114 117 118 118 118 119 119 119 116 113 110 111 113 114 116 118 118 113 107 106 102 96 92 92 93 94 94 93 92 93 95 90 86 85 86 88 84 81 74 71
Height
1424 1423 1425 1430 1433 1436 1439 1437 1441 1440 1441 1443 1448 1454 1459 1464 1467 1470 1472 1475 1477 1478 1479 1480 1481 1482 1483 1484 1484 1485 1486 1487 1488 1490 1492 1494 1496 1498 1501 1504 1507 1510 1513 1516
1430 1426 1427 1430 1429 1431 1434 1433 1435 1436 1441 1443 1450 1455 1460 1464 1467 1470 1472 1475 1477 1478 1479 1480 1481 1482 1483 1483 1484 1485 1486 1487 1488 1489 1490 1492 1494 1496 1499 1501 1504 1507 1510 1513
1433 1428 1431 1437 1429 1430 1431 1430 1433 1437 1440 1446 1452 1457 1461 1464 1467 1470 1473 1475 1476 1477 1478 1479 1480 1481 1482 1483 1484 1485 1486 1487 1487 1488 1490 1492 1494 1496 1498 1500 1502 1505 1508 1510
1430 1436 1448 1431 1427 1428 1430 1432 1433 1437 1442 1447 1454 1460 1464 1466 1468 1471 1473 1475 1476 1477 1478 1479 1480 1481 1482 1483 1484 1485 1486 1487 1488 1488 1490 1492 1494 1496 1498 1500 1502 1504 1507 1509
1430 1436 1435 1433 1431 1432 1434 1437 1437 1440 1445 1452 1457 1461 1466 1468 1470 1472 1473 1474 1475 1477 1477 1478 1479 1480 1481 1483 1484 1485 1486 1487 1488 1489 1490 1492 1494 1496 1498 1500 1502 1504 1506 1509
1431 1437 1440 1430 1431 1434 1436 1441 1441 1443 1447 1452 1455 1454 1464 1469 1470 1472 1473 1474 1475 1476 1477 1478 1479 1480 1481 1483 1484 1485 1486 1487 1488 1489 1490 1492 1494 1496 1499 1500 1502 1505 1507 1508
1430 1432 1428 1432 1434 1436 1442 1441 1444 1445 1448 1452 1453 1455 1464 1468 1470 1472 1473 1474 1475 1476 1476 1478 1479 1480 1481 1482 1484 1485 1486 1488 1489 1490 1491 1493 1495 1497 1499 1501 1503 1505 1506 1508
1429 1433 1436 1436 1436 1438 1442 1445 1445 1447 1450 1453 1457 1461 1464 1468 1471 1473 1474 1475 1476 1476 1477 1478 1479 1480 1481 1483 1484 1485 1487 1488 1489 1490 1492 1493 1495 1497 1499 1501 1504 1505 1507 1508
1429 1435 1440 1440 1442 1445 1446 1447 1448 1450 1453 1456 1459 1463 1466 1469 1471 1473 1475 1476 1477 1477 1478 1479 1480 1481 1482 1483 1485 1486 1488 1489 1490 1491 1493 1494 1496 1498 1500 1502 1504 1506 1508 1509
1436 1438 1442 1444 1446 1447 1448 1449 1450 1452 1455 1458 1461 1464 1467 1470 1473 1475 1476 1478 1479 1480 1480 1481 1482 1483 1484 1485 1487 1488 1489 1490 1492 1493 1495 1496 1498 1500 1502 1504 1506 1508 1509 1510
1437 1441 1443 1446 1448 1449 1450 1450 1452 1455 1458 1460 1462 1466 1469 1472 1474 1476 1478 1479 1481 1481 1482 1484 1485 1485 1486 1488 1489 1490 1491 1493 1494 1496 1497 1498 1500 1502 1504 1506 1508 1510 1511 1513
1435 1441 1442 1447 1449 1450 1452 1453 1454 1457 1460 1463 1465 1468 1471 1474 1476 1478 1480 1481 1483 1484 1485 1487 1487 1488 1489 1490 1492 1493 1494 1496 1498 1499 1501 1502 1503 1505 1508 1509 1511 1512 1513 1514
1441 1443 1445 1448 1450 1452 1453 1455 1457 1460 1463 1465 1469 1471 1474 1476 1478 1480 1482 1484 1486 1487 1488 1490 1490 1491 1492 1494 1495 1496 1498 1499 1501 1503 1505 1507 1508 1510 1511 1514 1515 1516 1516 1517
1442 1444 1447 1449 1451 1453 1455 1457 1460 1463 1466 1469 1471 1474 1476 1479 1481 1483 1486 1488 1489 1490 1492 1493 1493 1494 1496 1497 1499 1500 1502 1503 1505 1507 1509 1511 1513 1514 1516 1517 1518 1519 1520 1520
1444 1446 1448 1451 1453 1455 1457 1460 1463 1466 1469 1472 1474 1477 1479 1482 1484 1487 1489 1491 1493 1494 1496 1497 1498 1499 1500 1502 1503 1504 1506 1508 1509 1511 1513 1515 1516 1518 1519 1521 1521 1523 1523 1524
1445 1447 1449 1452 1454 1457 1460 1462 1465 1469 1472 1475 1477 1480 1483 1485 1488 1491 1493 1495 1497 1498 1500 1501 1502 1504 1505 1506 1507 1509 1510 1511 1513 1515 1517 1518 1520 1521 1522 1524 1525 1525 1526 1527
1445 1447 1450 1453 1456 1459 1462 1465 1468 1471 1474 1477 1480 1483 1486 1489 1492 1494 1497 1499 1500 1502 1504 1505 1506 1508 1509 1511 1512 1513 1514 1516 1517 1519 1520 1522 1523 1524 1525 1527 1527 1528 1528 1528
1446 1448 1450 1453 1456 1460 1464 1467 1470 1474 1477 1480 1484 1487 1490 1492 1495 1498 1500 1502 1504 1506 1508 1509 1510 1511 1513 1514 1515 1517 1518 1520 1521 1522 1523 1525 1526 1527 1528 1529 1530 1530 1531 1531
1446 1449 1452 1455 1459 1462 1466 1470 1474 1477 1480 1484 1487 1491 1494 1496 1499 1501 1504 1506 1508 1509 1512 1513 1514 1515 1516 1517 1519 1520 1521 1523 1524 1525 1526 1527 1528 1530 1530 1531 1532 1532 1533 1534
1447 1450 1454 1457 1462 1465 1469 1473 1477 1480 1484 1488 1491 1494 1497 1500 1503 1505 1508 1510 1512 1513 1515 1516 1518 1519 1519 1520 1522 1524 1525 1526 1527 1528 1529 1530 1531 1532 1533 1533 1534 1534 1535 1535
1450 1452 1456 1460 1464 1469 1473 1477 1480 1484 1488 1491 1494 1497 1501 1504 1507 1509 1511 1513 1515 1517 1518 1519 1521 1522 1523 1524 1525 1526 1527 1528 1529 1531 1531 1532 1533 1534 1534 1535 1536 1536 1537 1537
1453 1456 1460 1463 1467 1472 1477 1481 1484 1487 1491 1495 1498 1501 1504 1507 1510 1512 1514 1516 1518 1520 1522 1523 1524 1524 1525 1527 1528 1529 1530 1531 1532 1533 1533 1534 1535 1535 1536 1537 1537 1538 1538 1538
1456 1460 1463 1467 1472 1476 1480 1485 1488 1491 1495 1498 1501 1505 1507 1510 1513 1515 1518 1520 1521 1522 1524 1525 1525 1526 1528 1530 1530 1531 1532 1533 1534 1534 1535 1536 1537 1537 1538 1539 1539 1539 1539 1539
1460 1464 1468 1472 1476 1480 1484 1488 1491 1495 1498 1501 1505 1507 1510 1513 1516 1518 1519 1521 1523 1525 1526 1526 1527 1529 1530 1532 1532 1533 1534 1535 1535 1536 1537 1538 1539 1539 1540 1540 1540 1540 1540 1540
1464 1468 1472 1476 1479 1483 1487 1491 1494 1498 1501 1504 1507 1510 1513 1516 1518 1520 1522 1523 1525 1527 1528 1529 1529 1531 1533 1534 1534 1535 1536 1536 1537 1538 1539 1540 1540 1540 1541 1541 1541 1541 1541 1540
1468 1472 1476 1479 1483 1487 1490 1494 1497 1501 1504 1507 1510 1513 1516 1518 1520 1522 1524 1526 1528 1529 1530 1531 1532 1533 1535 1535 1536 1536 1537 1538 1539 1540 1540 1541 1541 1541 1542 1542 1541 1541 1541 1541
1473 1476 1480 1483 1487 1491 1494 1497 1500 1503 1507 1509 1512 1515 1518 1520 1523 1525 1527 1528 1530 1531 1533 1534 1535 1536 1536 1537 1537 1538 1539 1540 1540 1541 1541 1541 1542 1542 1542 1542 1542 1542 1541 1541